Find Kosmos-2403

NORAD ID: 28113 Int'l Des: 2003-056 Owner: KVR/IACG Country: RU Constellation: GLONASS operational
MEOCIRCULAR

Live-Position

3D-Globus wird geladen...

Über Kosmos-2403

Beschreibung wird geladen...

Nächste Überflüge

Passes for default location (London). Set your location on the main map for personalized predictions.

Höhenverlauf

Loading altitude history...

Zweizeiliger Elementsatz

1 28113U 03056B 26105.85433980 .00000004 00000-0 00000-0 0 9997
2 28113 64.2328 64.3821 0050753 72.2653 291.8997 2.13104940173922
Epoch: 15. Apr. 2026 • Age: 8 hours

Aktueller Status

Höhe 19281.2 km
Geschwindigkeit 3.93 km/s
Subsatellitenpunkt -59.75°S, 31.22°E
Startdatum 10. Dez. 2003
Alter 22.3 years
Typ other

Technische Details

Klassifizierung Payload
Masse 1415.00 kg
Trockenmasse 1200.00 kg
Gesamtmasse 1415.00 kg
Länge 4.00 m
Durchmesser 1.50 m
Spannweite 7.80 m
Form Cyl + Ant + 2 Pan
Hersteller POL
Bus-Typ Uragan
Phasenstatus In Orbit
Besitzer/Staat KVR/IACG/RU

Most Searched